Terug naar catalogus

SL-12 R/B

AUX MOTOR

ActiefHEO
NORAD 15715·ROCKET BODY·🇷🇺 Russia

Gelanceerd May 17, 1985 vanaf Baikonur Cosmodrome

Loading…

Volgende Passages (komende 24 uur)

TLE

VersSource: Space-Track

Epoch: Sep 14, 2026, 18:20 UTC

1 15715U 85037H   26257.76451644  .00008251  00000-0  11786-2 0  9992
2 15715  52.0235  36.9912 5004568 340.0535   5.8088  5.62485948627247

Volg SL-12 R/B in realtime met AllMySat

Download on the App Store